Wind_Speed
13 13 15 15 17 19 20 22 24 25 26 29 33 24 7 5 5 6 11 10 8 8 7 7 6 6 1 2 3 1 2 2 1 2 5 2 6 4 8 9 7 5 11 19 29
13 13 14 15 16 17 19 21 23 25 26 27 32 22 7 5 7 11 10 11 11 10 8 6 6 6 1 1 1 1 2 3 1 2 7 14 7 9 6 15 6 12 16 21 28
12 13 14 15 15 16 18 20 22 24 24 27 31 22 10 2 4 9 10 12 11 9 8 8 9 5 2 1 2 1 2 3 0 3 5 12 12 2 8 9 15 17 25 28 27
12 13 14 15 16 16 18 19 20 23 23 27 32 22 8 5 1 5 13 13 11 7 8 7 5 3 1 2 1 5 4 3 1 1 6 10 9 9 4 11 13 16 20 22 23
11 13 14 16 17 17 18 19 19 21 22 26 31 19 2 7 5 8 10 13 12 8 7 7 3 2 3 3 4 3 4 2 4 8 7 9 8 3 3 9 20 24 21 19 22
11 13 15 17 17 17 17 18 19 20 22 24 31 11 2 4 6 7 6 11 13 12 9 7 4 4 1 2 3 3 11 15 2 5 2 5 6 4 7 19 26 18 15 19 21
11 13 16 18 18 18 18 18 20 20 20 26 25 3 9 6 8 6 4 8 13 13 9 7 7 2 2 3 3 4 7 6 6 4 5 5 4 2 9 25 19 14 17 19 21
12 14 16 19 19 19 20 20 20 21 16 29 12 4 6 8 7 7 8 3 10 12 5 8 7 2 2 6 3 3 3 6 7 5 8 11 9 12 21 21 14 15 16 18 20
13 15 17 18 19 19 20 22 23 20 13 22 6 4 5 4 3 8 11 5 8 10 6 6 4 3 1 5 5 3 9 14 11 3 3 5 14 12 24 14 16 16 16 18 17
13 15 17 18 19 20 21 24 21 10 20 10 5 4 4 3 2 10 10 1 5 9 6 6 4 2 3 8 8 12 10 10 19 6 12 8 12 18 14 19 14 14 16 22 24
14 15 17 18 18 21 22 25 24 3 26 5 11 4 3 3 4 7 8 5 7 7 6 6 5 3 5 6 7 8 12 19 20 17 11 13 18 19 10 13 14 16 20 22 22
15 15 16 17 18 15 19 18 12 9 12 13 4 3 2 3 1 7 8 4 5 8 5 5 6 2 4 4 6 11 16 19 12 5 13 19 17 6 12 14 14 14 23 25 27
15 15 15 16 16 12 15 15 16 15 5 4 1 2 2 3 1 4 6 2 1 6 2 4 4 4 2 7 8 13 10 11 14 18 17 15 11 3 13 10 16 15 21 26 30
15 14 14 14 8 14 10 15 15 15 3 2 1 2 2 2 1 4 4 3 2 2 2 7 2 1 5 6 3 10 7 11 18 19 15 16 9 5 13 6 13 17 23 28 34
14 13 12 11 10 10 10 12 14 4 5 2 2 1 2 1 3 1 4 1 4 2 3 2 2 3 4 4 2 4 11 13 20 22 14 3 6 3 11 8 15 20 24 30 40
14 12 11 10 9 7 9 10 7 2 7 1 1 1 2 1 2 5 1 2 2 2 1 2 1 2 1 2 3 8 9 21 9 5 5 9 5 8 6 4 11 20 29 39 46
14 12 11 9 8 6 5 4 2 5 1 3 2 1 1 3 3 3 3 1 3 4 5 1 1 1 2 2 2 8 10 7 5 3 6 8 10 8 8 7 12 20 33 42 43
13 12 11 11 9 6 3 1 6 3 6 2 1 1 5 3 3 0 2 5 3 2 2 4 4 3 2 0 1 2 2 3 7 6 16 15 7 3 9 9 17 25 35 38 39
12 14 14 12 10 7 7 4 6 6 2 4 2 5 3 2 2 3 5 4 3 6 6 5 5 2 3 1 1 5 5 3 4 2 6 6 5 10 7 14 20 30 37 36 43
16 16 17 15 12 12 4 8 7 5 5 2 6 6 8 3 4 3 5 5 5 4 2 3 4 3 5 1 6 3 4 2 2 4 7 10 19 8 14 16 25 32 37 42 48
16 6 11 13 15 11 7 8 6 10 11 8 7 10 9 6 8 5 5 4 6 6 5 5 4 4 1 9 7 4 4 2 0 4 4 7 9 6 13 12 27 33 39 43 50
16 4 10 17 8 5 8 6 9 7 12 8 4 9 13 10 6 7 10 6 11 11 7 6 4 4 4 8 8 9 8 7 4 5 8 8 14 12 4 25 31 35 39 45 53
10 10 13 22 7 7 5 7 9 9 10 11 11 11 8 9 5 10 4 3 10 9 8 8 4 2 2 2 3 7 8 6 6 5 14 6 8 8 24 28 35 36 43 47 53
13 3 8 22 16 10 14 12 12 18 17 15 5 6 5 7 4 4 8 6 8 5 4 5 5 10 11 8 2 5 11 13 14 7 8 18 26 28 22 24 32 41 44 49 50
19 8 12 6 12 18 17 9 16 12 15 15 6 16 11 7 7 7 7 7 6 8 8 4 6 8 13 15 12 16 18 17 20 20 12 18 20 24 22 21 34 41 44 44 46
22 10 10 11 16 21 20 19 27 16 14 10 13 14 12 20 14 11 14 9 7 9 8 6 3 1 4 12 14 17 18 19 17 19 22 22 28 19 27 27 33 41 41 39 46
38 31 20 21 12 11 21 30 26 20 16 27 21 12 13 17 13 2 5 8 11 12 12 8 5 3 7 2 5 12 21 21 11 9 15 15 19 17 21 23 27 39 36 39 44
Wind_Direction
27 23 22 16 14 10 7 8 7 6 1 357 358 3 21 95 81 49 35 30 13 357 344 345 340 343 344 39 44 51 212 217 244 203 348 340 331 341 287 282 288 268 313 331 346
19 16 16 14 11 5 4 2 4 1 358 355 357 6 1 124 81 49 37 27 16 4 359 352 351 8 76 58 46 250 249 169 21 22 322 318 325 324 301 327 337 337 355 339 349
9 9 10 8 3 1 358 358 360 355 355 355 355 2 3 156 79 31 35 6 354 4 6 359 351 9 91 20 8 293 273 137 47 310 318 309 335 21 311 358 10 345 345 347 360
1 2 2 0 359 356 354 354 354 351 352 353 353 358 18 108 36 23 3 22 33 26 6 349 349 17 357 277 349 282 264 212 113 70 317 302 324 337 313 351 353 358 354 3 14
352 352 352 355 354 353 354 350 349 349 351 349 347 349 56 81 82 19 40 34 32 23 7 2 26 8 295 298 311 249 310 58 149 298 275 291 314 310 1 16 355 346 5 25 36
344 345 346 349 349 349 351 349 344 346 344 337 342 351 110 94 62 49 52 28 18 7 4 18 351 321 260 261 261 311 294 294 129 137 155 337 317 328 50 357 353 6 48 62 44
337 339 340 343 344 347 348 349 340 342 337 336 341 88 98 101 80 51 24 10 1 354 346 12 348 330 307 283 298 299 303 315 131 93 146 289 314 127 14 347 351 46 72 51 39
328 333 339 338 340 345 346 345 337 337 329 336 355 121 100 113 72 38 18 350 344 346 342 5 349 3 11 311 278 275 229 345 350 29 148 347 299 334 341 343 56 85 59 40 32
320 330 335 334 339 344 345 342 338 328 336 339 57 84 129 133 85 22 18 29 330 343 8 356 350 19 359 325 288 19 320 327 326 342 44 343 296 320 345 20 86 68 52 36 21
314 326 331 333 339 344 346 343 343 324 337 354 34 110 172 200 204 18 10 35 350 342 317 360 358 306 33 8 317 306 311 307 309 292 341 308 284 318 12 99 89 65 37 21 11
311 324 327 332 340 346 349 357 9 337 335 335 298 245 224 312 197 2 8 339 2 21 359 13 325 334 13 332 287 296 297 304 311 329 339 325 317 331 82 86 70 49 28 11 3
308 318 324 332 340 350 354 18 10 321 306 313 291 247 248 324 184 11 9 9 22 353 337 314 288 35 305 296 305 309 305 308 307 323 334 318 322 74 110 79 57 45 16 11 3
301 311 322 332 336 348 359 1 346 340 285 299 251 237 230 325 93 6 22 10 21 337 232 259 309 358 326 303 320 310 309 317 304 317 296 331 300 111 125 73 41 33 13 8 4
294 306 319 332 338 340 351 349 336 340 277 224 204 220 241 314 153 17 15 357 242 267 254 268 336 298 298 286 323 299 354 311 312 321 312 339 286 322 181 49 25 14 6 1 354
288 300 314 328 322 332 336 338 330 355 306 172 158 210 278 240 299 216 327 197 244 226 191 270 236 277 286 345 327 329 330 307 302 294 311 294 240 205 231 356 4 3 356 351 347
280 290 301 311 310 319 335 334 334 259 252 181 122 269 242 355 342 313 234 179 105 168 268 299 345 289 345 92 58 322 330 308 293 283 251 132 351 252 338 31 1 356 352 347 341
270 281 290 295 289 301 326 336 285 222 62 187 179 29 54 283 315 36 8 302 245 249 226 305 130 97 22 193 191 359 350 318 307 276 282 170 327 308 102 44 14 358 350 336 332
269 278 271 273 268 262 198 138 221 225 243 96 143 216 263 2 228 291 195 238 211 233 153 238 218 210 35 199 339 113 167 239 278 302 295 296 221 174 141 16 7 354 338 329 330
283 284 275 266 251 218 177 215 243 205 160 173 221 276 220 265 264 281 223 238 180 198 209 182 240 136 36 268 292 149 218 37 268 210 279 255 239 192 40 351 347 336 334 330 331
272 287 276 256 233 196 196 232 232 199 140 143 269 209 273 207 235 224 212 152 188 211 277 171 260 194 140 58 50 265 109 164 183 279 289 283 298 271 353 341 337 337 334 333 329
261 261 245 223 199 182 220 221 226 214 190 188 226 257 251 274 234 243 239 165 181 157 174 161 237 153 175 201 208 161 178 146 9 251 264 295 290 27 341 341 335 330 330 329 323
241 220 215 194 180 207 225 204 203 192 211 240 230 237 246 232 232 226 233 219 168 164 187 174 177 218 258 311 255 231 197 179 197 225 236 286 277 301 281 339 328 325 326 324 320
223 228 200 190 217 223 238 246 228 181 199 198 225 208 187 197 232 217 193 141 166 173 172 179 200 228 189 163 167 202 188 191 226 247 238 243 259 206 333 323 325 325 326 323 321
218 195 188 205 235 238 236 234 235 219 244 225 222 147 148 202 236 194 178 176 187 187 169 172 204 233 257 303 136 201 202 213 205 221 260 233 271 290 313 322 324 324 327 323 321
212 219 208 208 227 229 230 250 227 221 215 190 216 218 197 206 192 233 189 170 196 195 181 215 234 242 258 272 264 262 259 244 231 237 247 271 279 286 307 326 321 320 323 321 327
220 199 192 253 248 204 210 228 233 227 184 212 231 192 191 219 194 196 184 178 193 181 173 194 228 265 269 262 259 258 258 251 237 242 248 262 273 287 319 316 322 321 325 327 326
228 233 219 238 209 211 219 234 236 221 228 237 208 176 200 216 216 231 209 225 173 162 182 176 184 170 277 87 316 272 243 240 224 216 235 251 263 320 310 319 324 320 328 328 324
Height
1572 1571 1569 1566 1563 1560 1557 1553 1550 1546 1542 1538 1534 1530 1527 1526 1526 1526 1524 1527 1525 1524 1522 1520 1520 1519 1518 1517 1516 1517 1516 1514 1512 1516 1510 1513 1514 1514 1512 1509 1508 1506 1505 1505 1499
1573 1571 1569 1566 1563 1561 1557 1553 1550 1547 1543 1539 1534 1531 1529 1527 1528 1527 1528 1526 1525 1524 1523 1521 1520 1518 1518 1517 1516 1515 1513 1511 1513 1514 1513 1511 1514 1514 1510 1506 1506 1506 1507 1502 1497
1574 1572 1569 1566 1564 1561 1557 1554 1551 1548 1543 1539 1534 1531 1529 1529 1531 1530 1529 1527 1525 1524 1522 1521 1519 1517 1517 1517 1517 1515 1509 1512 1514 1517 1517 1513 1512 1512 1510 1504 1507 1507 1503 1499 1496
1574 1571 1569 1566 1564 1560 1557 1554 1550 1547 1543 1539 1535 1531 1530 1531 1535 1532 1530 1527 1526 1524 1523 1520 1518 1517 1516 1514 1516 1514 1510 1513 1516 1517 1516 1512 1513 1512 1510 1510 1509 1506 1503 1499 1493
1573 1571 1569 1566 1563 1560 1557 1554 1550 1546 1542 1539 1535 1531 1531 1532 1535 1533 1531 1529 1527 1525 1523 1520 1518 1517 1515 1516 1516 1513 1510 1514 1517 1517 1515 1511 1511 1511 1510 1508 1507 1503 1498 1496 1496
1572 1570 1568 1565 1563 1559 1556 1553 1550 1546 1542 1538 1534 1531 1531 1534 1535 1533 1532 1530 1527 1526 1523 1520 1519 1517 1517 1516 1515 1513 1511 1508 1513 1514 1513 1510 1507 1509 1508 1508 1505 1502 1499 1495 1496
1571 1569 1566 1564 1561 1559 1555 1552 1549 1545 1541 1537 1533 1531 1531 1536 1535 1534 1532 1531 1529 1526 1523 1520 1517 1517 1516 1515 1515 1514 1510 1504 1509 1512 1515 1511 1501 1506 1506 1507 1503 1505 1503 1501 1499
1570 1568 1565 1563 1561 1557 1554 1551 1548 1544 1541 1536 1532 1531 1533 1535 1535 1534 1532 1531 1529 1526 1524 1520 1518 1517 1517 1517 1514 1511 1510 1506 1500 1510 1515 1512 1503 1503 1506 1504 1503 1503 1503 1504 1502
1568 1566 1564 1562 1559 1556 1553 1550 1546 1541 1539 1535 1534 1533 1536 1536 1535 1534 1532 1531 1528 1525 1523 1519 1517 1517 1517 1512 1503 1508 1507 1508 1504 1504 1515 1513 1506 1502 1503 1503 1508 1507 1505 1503 1501
1567 1565 1563 1561 1558 1554 1551 1549 1544 1539 1538 1533 1533 1535 1536 1534 1534 1533 1531 1530 1528 1525 1523 1520 1518 1515 1513 1510 1512 1514 1513 1508 1505 1501 1509 1512 1506 1499 1503 1506 1507 1507 1506 1504 1502
1565 1564 1562 1559 1557 1553 1550 1547 1543 1540 1535 1535 1535 1533 1532 1533 1532 1531 1530 1529 1527 1526 1523 1523 1520 1518 1520 1521 1517 1517 1516 1508 1497 1498 1501 1505 1502 1499 1505 1509 1506 1506 1505 1502 1499
1563 1562 1560 1558 1555 1552 1551 1548 1549 1551 1539 1532 1532 1532 1532 1532 1531 1531 1531 1530 1528 1526 1525 1522 1518 1523 1524 1522 1521 1516 1512 1502 1500 1502 1503 1496 1497 1497 1504 1507 1507 1507 1507 1503 1498
1561 1560 1558 1556 1554 1552 1550 1549 1547 1545 1542 1532 1531 1532 1533 1533 1531 1531 1531 1530 1529 1525 1527 1525 1520 1524 1523 1518 1518 1511 1515 1513 1511 1502 1500 1493 1486 1490 1505 1505 1505 1504 1504 1501 1497
1558 1557 1556 1554 1554 1551 1549 1548 1545 1543 1538 1532 1531 1531 1532 1530 1531 1530 1529 1531 1529 1527 1528 1526 1524 1524 1522 1518 1521 1516 1523 1518 1511 1506 1495 1501 1494 1485 1500 1496 1501 1499 1499 1496 1493
1554 1554 1553 1552 1552 1550 1551 1547 1544 1543 1544 1532 1530 1530 1530 1532 1530 1530 1528 1526 1524 1525 1529 1519 1523 1523 1522 1524 1524 1519 1523 1518 1511 1502 1502 1490 1498 1481 1481 1487 1498 1499 1498 1497 1494
1551 1551 1550 1550 1549 1548 1547 1546 1544 1543 1541 1529 1528 1529 1529 1528 1528 1527 1527 1525 1526 1527 1528 1523 1526 1526 1523 1525 1526 1526 1519 1508 1504 1505 1494 1496 1503 1476 1483 1502 1500 1498 1496 1493 1489
1547 1547 1548 1547 1546 1546 1545 1545 1544 1543 1528 1528 1528 1529 1530 1527 1526 1528 1529 1526 1521 1520 1519 1523 1526 1527 1526 1523 1523 1519 1518 1511 1504 1492 1483 1493 1497 1483 1498 1501 1501 1497 1493 1492 1488
1542 1543 1542 1543 1543 1544 1545 1545 1550 1529 1526 1528 1529 1531 1529 1529 1527 1529 1530 1524 1529 1526 1523 1520 1518 1526 1528 1524 1521 1524 1523 1527 1532 1509 1489 1497 1496 1481 1493 1496 1496 1494 1496 1493 1485
1538 1538 1538 1539 1540 1541 1544 1545 1526 1526 1524 1526 1527 1525 1528 1531 1531 1527 1525 1522 1524 1524 1514 1520 1523 1528 1529 1528 1527 1527 1525 1533 1532 1545 1534 1487 1483 1482 1486 1488 1491 1492 1490 1484 1479
1533 1534 1533 1534 1536 1538 1539 1529 1523 1521 1523 1525 1524 1520 1518 1522 1528 1526 1518 1523 1525 1527 1528 1524 1520 1527 1531 1531 1532 1527 1531 1535 1536 1539 1525 1477 1478 1474 1485 1488 1484 1481 1479 1474 1467
1530 1529 1527 1527 1532 1535 1528 1521 1517 1515 1518 1521 1518 1516 1517 1519 1521 1521 1511 1521 1522 1527 1526 1525 1524 1525 1529 1522 1515 1530 1528 1532 1534 1536 1531 1514 1469 1479 1489 1490 1485 1481 1477 1472 1465
1524 1526 1522 1523 1529 1522 1515 1513 1511 1511 1514 1514 1514 1512 1511 1512 1514 1518 1508 1509 1517 1522 1521 1525 1523 1524 1518 1525 1525 1521 1520 1524 1528 1531 1527 1524 1489 1482 1486 1487 1486 1480 1476 1470 1461
1516 1517 1517 1519 1514 1512 1507 1506 1506 1506 1505 1504 1503 1503 1505 1508 1514 1504 1507 1515 1518 1520 1520 1524 1523 1519 1529 1527 1523 1519 1521 1519 1522 1529 1529 1526 1480 1475 1480 1484 1481 1478 1471 1462 1451
1509 1509 1511 1509 1503 1501 1499 1494 1494 1494 1493 1495 1495 1500 1503 1505 1506 1500 1507 1516 1516 1520 1521 1521 1519 1510 1495 1492 1509 1518 1517 1518 1520 1523 1507 1497 1478 1469 1479 1480 1477 1470 1464 1456 1445
1493 1490 1489 1493 1496 1496 1494 1482 1484 1483 1489 1488 1488 1488 1492 1500 1501 1500 1507 1513 1514 1515 1517 1518 1514 1512 1509 1508 1510 1508 1507 1507 1512 1509 1508 1478 1486 1479 1483 1482 1476 1468 1460 1450 1437
1481 1480 1483 1473 1477 1484 1479 1466 1467 1469 1476 1477 1476 1477 1481 1478 1482 1492 1494 1500 1501 1513 1513 1516 1511 1516 1516 1509 1509 1504 1500 1495 1501 1502 1498 1494 1482 1481 1479 1479 1474 1463 1454 1445 1435
1467 1464 1471 1457 1465 1469 1449 1441 1446 1460 1459 1462 1462 1468 1474 1471 1482 1490 1490 1493 1493 1499 1508 1514 1514 1522 1499 1515 1513 1500 1485 1481 1488 1486 1487 1487 1478 1478 1471 1471 1469 1455 1447 1443 1432